Flag for Germany Weather past 2 weeks in Freiberg, Saxony, Germany

Now
37 °F

Passing clouds.


Feels Like: 29 °F
Forecast: 33 / 35 °F
Wind: 13 mph from Southwest

Location: Dresden-Klotzsche

Current Time: Jan 26, 2015 at 6:03:16 PM

Latest Report: Jan 26, 2015 at 5:20 PM


Visibility: N/A

Pressure: 30.04 "Hg

Humidity: 75%

Dew point: 30 °F

Location of FreibergLocation

Historic Weather in Freiberg — Graph

°F

Freiberg temperature yesterday

Maximum temperature yesterday: 34 °F (at 12:50 PM)
Minimum temperature yesterday: 30 °F (at 1:50 AM)
Average temperature yesterday: 33 °F

Past Weeks' High & Low Weather Summary

 TemperatureHumidityPressure
High55 °F (Jan 13, 12:20 PM)100% (Jan 17, 9:20 AM)30.30 "Hg (Jan 17, 9:20 AM)
Low28 °F (Jan 18, 10:20 PM)41% (Jan 13, 6:50 PM)29.68 "Hg (Jan 15, 7:20 PM)
Average37 °F83%29.96 "Hg
* Reported Jan 11 4:20 PM — Jan 26 4:50 PM, Freiberg, Weather by CustomWeather, © 2014

Note: Actual official high and low records may vary slightly from our data, if they occured in-between our weather recording intervals... More about our weather records

Advertising

Freiberg weather history for previous 24 hours

 ConditionsComfort  
Time TempWeatherWind HumidityBarometerVisibility
4:50 PM
Jan 26
37 °FLight rain. Passing clouds.12 mph75%30.04 "HgN/A
4:20 PM37 °FPartly sunny.12 mph75%30.04 "HgN/A
3:50 PM37 °FPartly sunny.10 mph75%30.07 "HgN/A
3:20 PM37 °FBroken clouds.12 mph75%30.07 "HgN/A
2:50 PM39 °FPartly sunny.13 mph70%30.09 "HgN/A
2:20 PM39 °FPartly sunny.10 mph70%30.09 "HgN/A
1:50 PM37 °FScattered clouds.10 mph75%30.12 "HgN/A
1:20 PM37 °FPartly sunny.13 mph75%30.12 "HgN/A
12:50 PM37 °FPartly sunny.13 mph75%30.15 "HgN/A
12:20 PM37 °FPassing clouds.10 mph81%30.15 "HgN/A
11:50 AM36 °FScattered clouds.8 mph87%30.18 "HgN/A
11:20 AM36 °FPartly sunny.8 mph87%30.18 "HgN/A
10:50 AM34 °FPartly sunny.8 mph93%30.21 "HgN/A
10:20 AM34 °FPartly sunny.9 mph87%30.21 "HgN/A
9:50 AM34 °FPartly sunny.8 mph87%30.21 "HgN/A
9:20 AM34 °FPartly sunny.8 mph87%30.21 "HgN/A
8:50 AM32 °FPartly sunny.7 mph93%30.24 "HgN/A
8:20 AM32 °FPartly sunny.7 mph93%30.24 "HgN/A
7:50 AM32 °FPassing clouds.6 mph93%30.24 "HgN/A
7:20 AM32 °FPassing clouds.6 mph100%30.24 "HgN/A
6:50 AM32 °FPassing clouds.6 mph100%30.24 "Hg5 mi
6:20 AM32 °FPassing clouds.5 mph100%30.24 "Hg4 mi
5:50 AM32 °FIce fog.5 mph100%30.24 "Hg3 mi
5:20 AM32 °FIce fog.5 mph100%30.24 "Hg2 mi
4:50 AM32 °FIce fog.3 mph100%30.27 "Hg2 mi
4:20 AM32 °FIce fog.3 mph100%30.27 "Hg3 mi
3:50 AM32 °FIce fog.3 mph100%30.27 "Hg2 mi
3:20 AM32 °FIce fog.2 mph100%30.27 "Hg2 mi
2:50 AM32 °FIce fog.5 mph100%30.27 "Hg2 mi
2:20 AM32 °FIce fog.3 mph100%30.27 "Hg2 mi
1:50 AM32 °FIce fog.3 mph100%30.27 "Hg2 mi
1:20 AM32 °FSnow flurries. Ice fog.5 mph100%30.27 "Hg2 mi
12:50 AM32 °FSnow flurries. Ice fog.2 mph100%30.27 "Hg2 mi
12:20 AM34 °FFog.3 mph100%30.27 "Hg3 mi
11:50 PM
Jan 25
34 °FPassing clouds.2 mph93%30.30 "Hg4 mi
11:20 PM34 °FPassing clouds.2 mph93%30.30 "Hg4 mi
10:20 PM34 °FPassing clouds.2 mph93%30.30 "Hg4 mi
9:50 PM34 °FPassing clouds.2 mph87%30.30 "Hg4 mi
9:20 PM34 °FPassing clouds.2 mph87%30.30 "Hg5 mi
8:50 PM34 °FPassing clouds.5 mph87%30.30 "Hg6 mi
8:20 PM34 °FPassing clouds.3 mph93%30.30 "Hg5 mi
7:50 PM34 °FPassing clouds.3 mph93%30.30 "Hg6 mi
7:20 PM34 °FPartly cloudy.2 mph93%30.27 "Hg5 mi
6:50 PM34 °FPartly cloudy.1 mph93%30.27 "Hg5 mi
6:20 PM34 °FPassing clouds.3 mph93%30.27 "Hg6 mi
Weather by CustomWeather, © 2014

See weather overviewHow to use our weather pages